TimeCEST,TemperatureF,Dew PointF,Humidity,Sea Level PressureIn,VisibilityMPH,Wind Direction,Wind SpeedMPH,Gust SpeedMPH,PrecipitationIn,Events,Conditions,WindDirDegrees,DateUTC
2:00 AM,66,60,76,30.07,16,Calm,Calm,,,,,,2013-06-13 00:00:00
5:00 AM,66.2,59.0,78,30.01,-9999.0,Variable,1.2,-,N/A,,Clear,0,2013-06-13 03:00:00
5:30 AM,64.4,60.8,88,30.01,-9999.0,Calm,Calm,-,N/A,,Clear,0,2013-06-13 03:30:00
6:00 AM,64.4,59.0,83,30.01,-9999.0,Variable,2.3,-,N/A,,Clear,0,2013-06-13 04:00:00
6:30 AM,64.4,60.8,88,30.01,-9999.0,Calm,Calm,-,N/A,,Clear,0,2013-06-13 04:30:00
7:00 AM,62.6,60.8,94,30.01,-9999.0,NNE,3.5,-,N/A,,Clear,20,2013-06-13 05:00:00
7:30 AM,64.4,60.8,88,30.04,-9999.0,Calm,Calm,-,N/A,,Clear,0,2013-06-13 05:30:00
8:00 AM,67,61,76,30.04,16,Calm,Calm,,,,,,2013-06-13 06:00:00
8:00 AM,66.2,60.8,83,30.04,-9999.0,Calm,Calm,-,N/A,,Clear,0,2013-06-13 06:00:00
8:30 AM,68.0,62.6,83,30.04,-9999.0,Variable,1.2,-,N/A,,Clear,0,2013-06-13 06:30:00
9:00 AM,71.6,62.6,73,30.04,-9999.0,Calm,Calm,-,N/A,,Clear,0,2013-06-13 07:00:00
9:30 AM,75.2,64.4,69,30.04,-9999.0,Variable,1.2,-,N/A,,Clear,0,2013-06-13 07:30:00
10:00 AM,78.8,62.6,57,30.04,-9999.0,Calm,Calm,-,N/A,,Clear,0,2013-06-13 08:00:00
10:30 AM,80.6,62.6,54,30.04,-9999.0,Calm,Calm,-,N/A,,Clear,0,2013-06-13 08:30:00
11:00 AM,82.4,62.6,51,30.04,-9999.0,Variable,1.2,-,N/A,,Clear,0,2013-06-13 09:00:00
11:30 AM,84.2,60.8,45,30.04,-9999.0,Variable,1.2,-,N/A,,Clear,0,2013-06-13 09:30:00
12:00 PM,86.0,60.8,43,30.04,-9999.0,Calm,Calm,-,N/A,,Clear,0,2013-06-13 10:00:00
12:30 PM,87.8,60.8,40,30.04,-9999.0,Variable,2.3,-,N/A,,Clear,0,2013-06-13 10:30:00
1:00 PM,87.8,60.8,40,30.04,-9999.0,Variable,2.3,-,N/A,,Clear,0,2013-06-13 11:00:00
1:30 PM,89.6,59.0,36,30.04,-9999.0,Variable,3.5,-,N/A,,Clear,0,2013-06-13 11:30:00
2:00 PM,94,58,21,30.02,19,West,3.5,,,,,270,2013-06-13 12:00:00
2:00 PM,91.4,59.0,34,30.01,-9999.0,Variable,2.3,-,N/A,,Clear,0,2013-06-13 12:00:00
2:30 PM,93.2,60.8,34,30.01,-9999.0,Variable,2.3,-,N/A,,Clear,0,2013-06-13 12:30:00
3:00 PM,95.0,59.0,30,30.01,-9999.0,SW,4.6,-,N/A,,Clear,220,2013-06-13 13:00:00
3:30 PM,93.2,57.2,30,29.98,-9999.0,ENE,3.5,-,N/A,,Clear,60,2013-06-13 13:30:00
4:00 PM,95.0,57.2,28,29.98,-9999.0,Variable,2.3,-,N/A,,Clear,0,2013-06-13 14:00:00
4:30 PM,95.0,59.0,30,29.98,-9999.0,Variable,2.3,-,N/A,,Clear,0,2013-06-13 14:30:00
5:00 PM,95.0,59.0,30,29.98,-9999.0,West,8.1,-,N/A,,Clear,260,2013-06-13 15:00:00
5:30 PM,95.0,57.2,28,29.95,-9999.0,West,9.2,-,N/A,,Clear,280,2013-06-13 15:30:00
6:00 PM,93.2,55.4,28,29.95,-9999.0,WNW,8.1,-,N/A,,Clear,300,2013-06-13 16:00:00
6:30 PM,93.2,53.6,26,29.95,-9999.0,West,5.8,-,N/A,,Clear,280,2013-06-13 16:30:00
7:00 PM,93.2,55.4,28,29.95,-9999.0,West,4.6,-,N/A,,Clear,270,2013-06-13 17:00:00
7:30 PM,91.4,55.4,29,29.95,-9999.0,WNW,10.4,-,N/A,,Clear,290,2013-06-13 17:30:00
8:00 PM,89,56,22,29.95,25,West,10.4,,,,,270,2013-06-13 18:00:00
8:00 PM,87.8,55.4,33,29.95,-9999.0,West,10.4,-,N/A,,Clear,280,2013-06-13 18:00:00
8:30 PM,86.0,55.4,35,29.95,-9999.0,West,8.1,-,N/A,,Clear,270,2013-06-13 18:30:00
9:00 PM,86.0,57.2,37,29.95,-9999.0,WSW,6.9,-,N/A,,Clear,240,2013-06-13 19:00:00
9:30 PM,82.4,60.8,48,29.95,-9999.0,WNW,4.6,-,N/A,,Clear,290,2013-06-13 19:30:00
10:00 PM,80.6,60.8,51,29.98,-9999.0,WSW,6.9,-,N/A,,Clear,250,2013-06-13 20:00:00
10:30 PM,77.0,60.8,57,29.98,-9999.0,WSW,3.5,-,N/A,,Clear,240,2013-06-13 20:30:00
11:00 PM,73.4,60.8,65,29.98,-9999.0,SW,3.5,-,N/A,,Clear,230,2013-06-13 21:00:00